Weather History for Fort Smith, AR

Change the Weather History Date:

Friday, March 28, 2014

  Actual Average Record
Temperature  
Mean Temperature 59 °F 56 °F  
Max Temperature 68 °F 69 °F 89 °F (1963)
Min Temperature 49 °F 44 °F 25 °F (1931)
Degree Days  
Heating Degree Days 6 9  
Month to date heating degree days 430 360  
Since 1 July heating degree days 3375 3033  
Cooling Degree Days 0 1  
Month to date cooling degree days 0 6  
Year to date cooling degree days 0 7  
Growing Degree Days 8 (Base 50)    
Moisture  
Dew Point 51 °F    
Average Humidity 82    
Maximum Humidity 100    
Minimum Humidity 63    
Precipitation  
Precipitation 0.07 in 0.13 in 2.38 in (1989)
Month to date precipitation 3.74 3.43  
Year to date precipitation 5.51 9.00  
Sea Level Pressure  
Sea Level Pressure 29.87 in    
Wind  
Wind Speed 8 mph (NNE)    
Max Wind Speed 21 mph    
Max Gust Speed 28 mph    
Visibility 9 miles    
Events Rain    
T = Trace of Precipitation, MM = Missing Value Source: NWS Daily Summary

Daily Weather History Graph

Daily Weather History Graph

Search for Another Location

Airport:

Trip Planner

Search our weather history database for the weather conditions in past years. The results will help you decide how hot, cold, wet, or windy it might be!

Date:

Astronomy

Mar. 28, 2014 Rise Set
Actual Time 7:09 AM CDT 7:35 PM CDT
Civil Twilight 6:44 AM CDT 8:01 PM CDT
Nautical Twilight 6:14 AM CDT 8:31 PM CDT
Astronomical Twilight 5:43 AM CDT 9:01 PM CDT
Moon 5:36 AM CDT (3/28) 5:36 PM CDT (3/28)
Length of Visible Light 13h 17m
Length of Day
12h 26m
Waning Crescent, 6% of the Moon is Illuminated
Mar 28
Waning Crescent
Mar 30
New
Apr 7
First Quarter
Apr 15
Full
Apr 22
Last Quarter

Hourly Weather History & Observations

Time (CDT) Temp. Dew Point Humidity Pressure Visibility Wind Dir Wind Speed Gust Speed Precip Events Conditions
12:14 AM 63.0 °F 60.1 °F 90% 29.79 in 10.0 mi SW 3.5 mph - N/A   Overcast
12:53 AM 59.0 °F 57.0 °F 93% 29.79 in 6.0 mi SW 3.5 mph - N/A   Partly Cloudy
1:10 AM 59.0 °F 57.0 °F 93% 29.79 in 1.5 mi Calm Calm - N/A   Clear
1:18 AM 57.9 °F 57.0 °F 97% 29.80 in 0.8 mi WSW 3.5 mph - N/A   Clear
1:23 AM 57.0 °F 55.9 °F 96% 29.80 in 2.5 mi SW 3.5 mph - N/A   Clear
1:30 AM 57.9 °F 57.0 °F 97% 29.80 in 5.0 mi West 4.6 mph - N/A   Clear
1:53 AM 55.0 °F 55.0 °F 100% 29.81 in 7.0 mi West 6.9 mph - N/A   Clear
2:53 AM 57.0 °F 51.1 °F 81% 29.81 in 10.0 mi North 8.1 mph - N/A   Partly Cloudy
3:53 AM 55.9 °F 48.9 °F 77% 29.82 in 10.0 mi North 4.6 mph - N/A   Overcast
4:53 AM 55.0 °F 46.0 °F 72% 29.82 in 10.0 mi ENE 4.6 mph - N/A   Partly Cloudy
5:53 AM 51.1 °F 46.0 °F 83% 29.82 in 10.0 mi Calm Calm - N/A   Clear
6:53 AM 50.0 °F 46.0 °F 86% 29.85 in 10.0 mi Calm Calm - N/A   Clear
7:53 AM 51.1 °F 48.0 °F 89% 29.87 in 10.0 mi Calm Calm - N/A   Mostly Cloudy
8:53 AM 57.0 °F 46.9 °F 69% 29.88 in 10.0 mi NE 6.9 mph - N/A   Mostly Cloudy
9:23 AM 57.0 °F 46.9 °F 69% 29.90 in 10.0 mi East 8.1 mph - N/A   Mostly Cloudy
9:35 AM 57.0 °F 48.0 °F 72% 29.90 in 10.0 mi ENE 8.1 mph - N/A   Overcast
9:53 AM 57.9 °F 48.9 °F 72% 29.88 in 10.0 mi ENE 9.2 mph - N/A   Overcast
10:53 AM 61.0 °F 50.0 °F 67% 29.89 in 10.0 mi ENE 8.1 mph - N/A   Overcast
11:53 AM 64.0 °F 52.0 °F 65% 29.89 in 10.0 mi ENE 9.2 mph - N/A   Overcast
12:18 PM 64.0 °F 53.1 °F 67% 29.90 in 10.0 mi ENE 9.2 mph - N/A   Overcast
12:53 PM 64.9 °F 54.0 °F 68% 29.89 in 10.0 mi NE 6.9 mph - N/A   Overcast
1:53 PM 66.9 °F 55.0 °F 66% 29.84 in 10.0 mi ENE 12.7 mph - N/A   Overcast
2:53 PM 66.0 °F 54.0 °F 65% 29.86 in 10.0 mi NNW 5.8 mph - N/A   Overcast
3:53 PM 64.0 °F 53.1 °F 67% 29.84 in 10.0 mi North 12.7 mph - N/A   Mostly Cloudy
4:05 PM 64.0 °F 53.1 °F 67% 29.86 in 10.0 mi North 15.0 mph - N/A   Scattered Clouds
4:12 PM 64.0 °F 54.0 °F 70% 29.86 in 10.0 mi North 11.5 mph - N/A   Mostly Cloudy
4:53 PM 63.0 °F 53.1 °F 70% 29.86 in 10.0 mi NNE 9.2 mph - N/A   Overcast
5:53 PM 59.0 °F 50.0 °F 72% 29.88 in 10.0 mi NNE 15.0 mph - N/A   Overcast
6:53 PM 54.0 °F 48.0 °F 80% 29.95 in 2.5 mi NNE 13.8 mph - 0.06 in Rain Heavy Rain
7:02 PM 54.0 °F 48.9 °F 83% 29.95 in 8.0 mi NNE 15.0 mph - 0.01 in Rain Light Rain
7:53 PM 54.0 °F 48.9 °F 83% 29.96 in 10.0 mi NE 12.7 mph - 0.01 in   Overcast
8:53 PM 54.0 °F 48.9 °F 83% 29.97 in 10.0 mi NE 8.1 mph - N/A   Overcast
9:53 PM 53.1 °F 48.9 °F 86% 30.01 in 10.0 mi NNW 5.8 mph - 0.00 in   Mostly Cloudy
10:53 PM 52.0 °F 48.0 °F 86% 30.01 in 10.0 mi NW 6.9 mph - N/A   Clear
11:53 PM 50.0 °F 46.0 °F 86% 30.04 in 10.0 mi WSW 8.1 mph - N/A   Clear